Regional Weather Roundup
Issued by NWS Newport/Morehead, NC

Current Version | Previous Version | Graphics & Text | Print | Product List | Glossary Off
Versions: 1 2 3 4 5 6 7 8 9 10 11 12 13 14 15 16 17 18 19 20 21 22 23 24 25 26 27 28 29 30 31 32 33 34 35 36 37 38 39 40 41 42 43 44 45 46 47 48 49 50

000
ASUS42 KMHX 242222
RWRMHX
WEATHER ROUNDUP FOR EASTERN NORTH CAROLINA
NATIONAL WEATHER SERVICE NEWPORT/MOREHEAD CITY NC
600 PM EDT THU JUL 24 2014

NOTE: "FAIR" INDICATES FEW OR NO CLOUDS BELOW 12,000 FEET
WITH NO SIGNIFICANT WEATHER AND/OR OBSTRUCTIONS TO VISIBILITY

NCZ015>017-031-032-045>047-102-103-242300-
NORTH COAST

CITY           SKY/WX    TMP DP  RH WIND       PRES   REMARKS
EDENTON        PTSUNNY   78  72  82 S6        29.86S
ELIZABETH CITY MOSUNNY   78  69  73 S5        29.85F
KITTY HAWK     MOCLDY    78  69  75 CALM      29.85S
MANTEO         NOT AVBL

$$

NCZ045>047-081-094-103-104-242300-
CENTRAL COAST

CITY           SKY/WX    TMP DP  RH WIND       PRES   REMARKS
FRISCO         LGT RAIN  74  72  93 SW10      29.87F
SWANQUARTER      N/A     77 N/A N/A S6        29.82F

$$

NCZ095-097-098-100-101-242300-
SOUTHERN COAST

CITY           SKY/WX    TMP DP  RH WIND       PRES   REMARKS
BEAUFORT       HVY RAIN  75  73  93 S17       29.88R FOG
CEDAR ISLAND     N/A     73 N/A N/A S6        29.88F
JACKSONVILLE   PTSUNNY   76  73  91 E6        29.84F THUNDER
NEWPORT        NOT AVBL
PINEY ISLAND   LGT RAIN  74  32  21 S9        29.86F
WILMINGTON     TSTM      75  71  87 N17G53    29.89R FOG


$$

NCZ011>013-027>030-043-044-078>080-089-090>093-098-242300-
COASTAL PLAIN

CITY           SKY/WX    TMP DP  RH WIND       PRES   REMARKS
AHOSKIE        MOSUNNY   80  71  71 S7        29.86R
CLINTON        CLOUDY    79  73  80 E8        29.85R
ELIZABETHTOWN  PTSUNNY   81  73  75 SW5       29.84F
GOLDSBORO      CLOUDY    75  75 100 SE3       29.83F
GREENVILLE     CLOUDY    77  73  88 SE3       29.88S
HAVELOCK       NOT AVBL
KENANSVILLE    PTSUNNY   76  71  83 S5        29.87R
KINSTON        LGT RAIN  77  75  94 SE5       29.86F
NEW BERN       CLOUDY    75  73  94 S3        29.86F
RICHLANDS      CLOUDY    73  72  94 N6        29.87R
ROANOKE RAPIDS NOT AVBL
ROCKY MOUNT    PTSUNNY   81  72  74 E6        29.83F
WASHINGTON     CLOUDY    75  73  93 SE5       29.87R
WHITEVILLE     MOSUNNY   80  73  79 NE3       29.85F

$$

AMZ130-135-150-152-154-156-158-170-250-252-270-ANZ085-086-088-633-658-670-242300-
MARINE OBSERVATIONS

STATION/POSITION TIME  TEMP    WIND        PRES    WAVE   SWELL
                       AIR SEA DIR/SP/G            HT/PER HT/PER
                 (UTC) (F)     (DEG/KT/KT) (MB)    (FT/S) (FT/S)
CHESAPEAKE LIGHT NOT AVBL
BUOY 44014       2200   77 79  270/  2/  4 1010.6    3/ 4   3/ 4
DUCK             2200   78 74  130/  4/  4 1010.3
2E DUCK          2100                        N/A     2/ 8
OREGON INLET     2200   76 82   CALM  /  2 1010.8
BUOY 44095       2200      78                N/A     3/ 7
20E OREGON INLET 2100          VRB  6/ 10    N/A
HATTERAS CG      2200   75 82  210/ 12/ 16 1011.7
DIAMOND BUOY     2200          VRB 17/ 19  1011.0    4/ 7   2/ 7
CAPE LOOKOUT     2200   72     200/  7/ 10 1012.2
BEAUFORT LAB     2200   74 82  190/ 10/ 15 1011.1
30 SE NEW RIVER  2200   82 81  210/ 17/ 21 1010.7    4/ 5   2/ 8
5 SE WRIGHTSVILL 2200   81 82  230/ 19/ 21   N/A
BUOY 41002       2051   82 82  240/ 17/ 21 1015.4    5/ 5   2/ 9
BUOY 41004       2200   83 83  210/ 17/ 19 1011.8    4/ 5   2/14

$$


USA.gov is the U.S. government's official web portal to all federal, state and local government web resources and services.